Location: Gälforsberget
(66.6500°N, 22.4167°E)
Time: 15:53:41
(UTC+00:00)

Cosmos 1937 Rocket - Pass Details

Date: 11 April 2026
Orbit: 742 x 775 km, 74.0° (Epoch: 17 May)

Event Time Altitude Azimuth Distance (km) Brightness Sun altitude
Rises 21:06:39 0° 243° (WSW) 3,256 6.7 -13.2°
Reaches altitude 10° 21:09:05 10° 248° (WSW) 2,329 6.0 -13.3°
Maximum altitude 21:14:18 57° 327° (NNW) 909 4.2 -13.5°
Drops below altitude 10° 21:19:31 10° 47° (NE) 2,324 6.3 -13.7°
Sets 21:21:57 0° 51° (NE) 3,248 7.0 -13.7°
